Showing default

GLOBALSTAR M087, 52888

Orbit data source: Space-Track

GLOBALSTAR M087, 52888 is a payload satellite owned by Globalstar (US) in LEO that was launched on Sun, 19 Jun 2022 UTC via an FALCON 9 launch vehicle from the Air Force Eastern Test Range (AFETR). Payloads include a variety of satellites, spacecraft, and rockets equipped with specific instruments for various scientific and technological missions. These include communications satellites like Starlink; space stations such as the ISS; scientific satellites like the Hubble; Earth observation satellites from companies like Planet Labs, Umbra, and HawkEye 360; GPS; miniature CubeSats for education and research; and military/defense satellites.

Loading next visibility...
GLOBALSTAR M087 details
Identifier
52888, 2022-064A
Orbit
LEO
Last TLE update1 day ago
Origin
Flag of USGlobalstar (US)
ManufacturerThales Alenia
MissionOperational Commercial Communications
Bus & MotorPRISMA?, LS-400 AOCS?
Mass715 kg wet, ~500 kg dry
Launch date (UTC)
2022-06-19 (3 years ago)
Launch vehicle
FALCON 9
Launch site
Air Force Eastern Test Range (AFETR)
Object type
Payload
Rocket body
Debris
Shape & HBRBox + 2 Pan, 12 m
Radar Cross Section28.800 m², Large (>1 m²)

Expand to show TLE details & history

TLE from 1 day ago
0 GLOBALSTAR M087
1 52888U 22064A   24360.43795971 -.00000089  00000-0  89366-4 0  9999
2 52888  51.9781 265.9958 0021285 355.6787   4.3905 12.88917908123041
Epoch: 2024-12-25T10:30Z
Definitive object data (Epoch: 2024-12-25T10:30:39.718Z)
Latitude-0.00003°
Longitude13.89857°
Altitude1,290.204 km
Speed7.22 km/s
True Right ascension17h 43m 58s
True Declination0° 00' 00"
Sunlit
Object was in daylight at TLE epoch
Visualization TLE readout
Latitude-41.7861°
Longitude-125.19232°
Altitude1,327.951 km
Speed7.19 km/s
Apparent Right ascension05h 05m 44s
Apparent Declination-80° 12' 01"
Sunlit
Object is in daylight
Visualization observer readout
Local Sidereal Time09:25:28
Azimuth190.881° SSW
Elevation-35.24°
Doppler factor1
Orbital elements
Apogee altitude1,322.578 km
Perigee altitude1,289.866 km
Semi-major axis7,684.359 km
Eccentricity0.0021285
Inclination51.9781°
RAAN265.9958°
Arg. of periapsis355.6787°
True anomaly4.40922°
Mean anomaly4.3905°
Eccentric anomaly4.39986°
Mean motion3.22205 °/min
BSTAR0.000089366
Orbital period111.73 mins
Loading maneuver chart data...
Loading historical data...
Loading historical data...
Loading historical data...
Loading historical data...
Loading historical data...
Loading historical data...
Loading historical data...

GLOBALSTAR M087 Visibility forecast

Observer location: undefined°, undefined

Span
Click to sort rows by Start time (UTC) header in descending order
Start Az.
Max El. time (UTC)
Max El. Az.
Max El.
End time (UTC)
End Az.
8 mins2024-12-26 18:16:20.866Z149.923° SSE2024-12-26 18:20:20.866Z117.874° SE15.693°2024-12-26 18:24:20.866Z86.762° E
14 mins2024-12-26 20:09:20.866Z215.98° SW2024-12-26 20:16:20.866Z125.255° SE43.002°2024-12-26 20:23:20.866Z56.317° ENE
14 mins2024-12-26 22:07:20.866Z268.624° W2024-12-26 22:13:20.866Z330.459° NNW36.44°2024-12-26 22:21:20.866Z50.569° ENE
13 mins2024-12-27 00:06:20.866Z302.925° NW2024-12-27 00:12:20.866Z359.763° N29.98°2024-12-27 00:19:20.866Z64.897° ENE
14 mins2024-12-27 02:04:20.866Z312.136° NW2024-12-27 02:11:20.866Z30.067° NE39.541°2024-12-27 02:18:20.866Z102.628° ESE
14 mins2024-12-27 04:02:20.866Z297.504° NW2024-12-27 04:08:20.866Z231.277° WSW39.098°2024-12-27 04:16:20.866Z153.043° SSE
|